Find Aerocube 18B

NORAD ID: 63222 Int'l Des: 2025-052 Owner: AERO Country: US operational
LEOCIRCULARRETROGRADESSO

Current View

Loading 3D Globe...

About Aerocube 18B

Description loading...

Upcoming Passes

Passes for default location (London). Set your location on the main map for personalized predictions.

Altitude History

Loading altitude history...

Two-Line Element Set

1 63222U 25052N 26149.48056928 .00007406 00000-0 30757-3 0 9995
2 63222 97.4006 43.1818 0004402 170.4889 189.6432 15.24109417 67049
Epoch: May 29, 2026 • Age: 21 hours

Current Status

Altitude 494.6 km
Velocity 7.62 km/s
Sub-Earth Point 30.89°N, 149.43°W
Launch Date Mar 15, 2025
Age 1.2 years
Type other

Technical Details

Classification Payload
Mass 10.00 kg
Dry Mass 10.00 kg
Total Mass 10.00 kg
Length 0.40 m
Diameter 0.10 m
Span 0.40 m
Shape Box + 2 pan
Manufacturer AERO
Bus Type Cubesat 6U
Phase Status In Orbit
Owner/State AERO/US

Most Searched